SCP
8 7 8 9 10 11 9 8 9 10 11 9 8 8 7 7 6 6 6 5 5 5 4 3 2 2 2 2 2 2 2 2 2 2 2 1 2 2 3 4 4 4 4
9 8 8 9 10 10 9 8 8 9 9 9 8 8 7 6 6 5 6 6 5 4 3 2 2 1 2 2 2 1 2 2 2 2 1 1 1 2 3 3 4 5 5
9 8 7 8 8 9 8 8 8 8 8 7 7 7 7 6 5 4 5 6 5 3 2 2 1 1 1 1 1 1 1 1 1 1 1 1 1 1 2 3 4 4 5
9 9 8 7 8 8 8 8 8 7 6 6 6 6 6 5 4 4 5 5 4 2 1 1 1 1 1 1 1 1 1 1 1 1 1 1 1 1 1 2 2 3 3
10 9 8 8 8 8 7 7 7 7 6 5 5 5 4 4 4 4 4 4 2 1 1 1 1 1 1 1 1 1 1 1 1 1 1 1 1 1 1 1 1 1 1
11 10 9 9 8 7 6 6 7 7 6 5 5 4 4 4 4 3 3 2 1 1 1 1 1 1 1 1 1 1 1 1 1 1 1 1 1 1 1 0 1 1 1
11 10 9 9 7 6 5 5 7 7 6 5 5 4 4 3 3 2 2 1 1 1 1 1 1 1 2 2 2 2 2 2 1 1 1 1 1 1 0 0 0 1 1
9 9 9 8 7 6 5 5 6 7 7 5 5 4 3 2 2 2 2 1 1 1 1 1 2 2 2 2 2 2 2 2 2 1 1 1 1 1 1 0 0 0 0
8 8 8 8 7 7 6 5 5 6 6 4 3 3 3 2 2 2 2 1 1 2 2 2 2 2 2 2 2 2 2 2 2 2 1 1 1 1 1 1 1 0 0
6 7 7 8 8 8 8 7 5 4 4 3 3 3 2 2 2 2 2 2 2 3 3 3 3 2 2 2 2 2 2 2 2 2 1 1 1 1 1 1 1 1 0
6 6 6 7 8 9 10 9 6 4 3 3 3 3 3 3 3 3 2 3 3 3 3 3 2 2 2 2 1 1 2 2 2 2 1 1 1 1 1 1 1 1 1
5 5 6 7 9 11 12 11 8 5 3 3 4 4 4 4 4 3 3 3 4 4 3 3 2 2 1 1 1 1 1 1 1 1 1 1 1 1 1 1 1 1 1
4 5 6 8 9 11 13 13 10 6 3 3 4 5 5 5 5 4 3 3 4 4 3 2 2 1 1 1 1 1 1 1 1 1 1 1 1 1 1 1 1 1 1
4 6 7 8 8 10 14 14 11 6 4 4 5 6 6 5 5 4 3 4 4 3 2 2 1 1 0 0 0 0 0 0 0 0 0 0 0 0 0 0 0 1 1
5 7 8 8 7 10 13 14 11 7 5 5 5 6 5 5 5 4 4 3 3 2 1 1 0 0 0 0 0 0 0 0 0 0 0 0 0 0 0 0 0 0 0
7 8 8 7 7 9 12 13 10 8 6 6 6 5 5 5 4 3 2 2 1 1 1 0 0 0 0 0 0 0 0 0 0 0 0 0 0 0 0 0 0 0 0
8 8 7 5 6 8 10 10 9 8 7 7 6 5 4 4 2 1 1 1 0 1 1 1 0 0 0 0 0 0 0 0 0 0 0 0 0 0 0 0 0 0 0
9 8 5 4 5 6 7 7 7 7 8 7 5 4 3 2 1 0 0 0 1 1 1 1 1 0 0 0 0 0 0 0 0 0 0 0 0 0 0 0 0 0 0
9 7 4 2 3 5 5 6 6 7 7 6 4 3 1 1 0 0 0 1 1 1 1 1 1 0 0 0 0 0 0 0 0 0 0 0 0 0 0 0 0 0 0
8 6 3 2 3 4 5 6 6 6 5 4 3 2 1 1 1 1 1 1 1 1 1 1 0 0 0 0 0 0 0 0 0 0 0 0 0 0 0 0 0 0 0
6 4 2 2 3 4 5 6 5 4 3 2 2 1 1 1 1 1 1 1 1 1 1 1 1 1 1 0 0 0 0 0 0 0 0 0 0 0 0 0 0 0 0
3 2 2 2 3 5 5 5 4 3 2 1 1 1 1 1 1 1 1 1 1 1 1 1 1 1 1 0 0 0 0 0 0 0 0 0 0 0 0 0 0 0 0
1 1 1 2 4 5 5 3 2 2 1 1 0 0 0 1 1 1 1 1 1 1 1 1 1 1 1 0 0 0 0 0 0 0 0 0 0 0 0 0 0 0 0
1 1 1 2 3 3 3 2 1 1 1 0 0 0 0 0 0 0 0 0 0 0 0 0 0 0 0 0 0 0 0 0 0 0 0 0 0 0 0 0 0 0 0
1 1 1 2 2 2 1 1 1 0 0 0 0 0 0 0 0 0 0 0 0 0 0 0 0 0 0 0 0 0 0 0 0 0 0 0 0 0 0 0 0 0 0
1 1 1 1 1 1 1 1 0 0 0 0 0 0 0 0 0 0 0 0 0 0 0 0 0 0 0 0 0 0 0 0 0 0 0 0 0 0 0 0 0 0 0
Wind_Speed
8 9 9 9 8 7 6 5 4 4 3 2 1 1 1 1 2 2 3 2 2 3 2 3 2 3 2 2 3 3 4 3 1 2 2 2 2 1 1 0 0 1 0
9 9 9 9 8 7 6 5 4 3 2 2 1 1 1 1 2 2 2 2 2 3 3 3 3 3 2 2 3 3 3 3 2 2 2 2 1 0 0 0 1 1 1
9 10 10 9 8 7 6 5 4 3 2 2 2 1 1 1 1 1 1 1 1 2 2 3 3 3 3 2 3 3 3 3 3 2 2 2 1 1 0 0 1 0 0
8 9 10 9 8 7 6 5 4 3 3 2 2 1 1 1 1 1 1 1 1 2 2 3 3 3 3 3 3 3 3 3 3 2 2 2 2 1 1 1 0 0 0
9 9 10 10 9 8 7 5 4 3 3 2 2 1 1 1 1 1 1 0 1 1 2 2 3 3 2 3 3 3 3 3 3 3 3 3 2 2 2 2 1 0 0
9 9 10 10 8 8 7 6 5 4 4 3 2 1 1 1 1 1 1 0 0 1 2 3 3 3 3 3 3 3 3 3 3 3 3 3 2 2 2 2 2 1 1
10 10 11 10 9 8 7 7 6 5 4 3 2 1 1 1 1 0 1 1 1 1 3 3 3 3 3 3 3 3 3 3 4 3 3 3 3 3 2 2 1 1 1
10 11 11 10 9 8 7 7 6 5 4 3 2 2 1 0 1 1 1 1 1 1 2 2 3 3 4 4 3 3 3 3 4 4 3 3 2 2 2 1 1 1 1
10 11 11 10 9 8 7 6 6 5 4 4 3 3 2 1 0 1 1 1 1 2 2 2 3 3 3 4 4 2 3 3 3 4 4 3 2 2 2 2 2 1 2
10 10 9 9 8 8 7 6 5 4 5 4 3 3 2 1 1 1 1 1 2 2 2 3 3 3 3 3 4 3 3 3 3 3 3 3 2 2 2 2 2 2 2
10 9 9 9 8 7 7 6 5 4 3 3 2 2 2 1 1 0 1 1 2 2 2 3 3 3 3 3 3 4 3 4 4 4 4 3 3 2 2 2 2 2 1
8 8 8 9 8 7 7 6 5 5 4 3 3 2 2 1 1 1 1 1 2 2 2 3 3 3 2 3 3 4 4 3 4 4 3 3 2 2 2 2 2 2 1
8 9 8 8 7 7 6 6 5 5 4 4 4 3 2 1 1 0 0 1 1 2 3 3 3 3 2 2 3 4 4 4 4 4 3 3 3 3 2 2 2 2 1
7 8 8 7 7 6 6 6 5 5 4 4 4 3 2 2 1 1 1 1 2 2 2 3 3 3 3 3 4 4 4 4 3 3 3 3 2 3 3 3 2 2 1
8 8 7 7 6 6 5 5 4 4 3 3 3 3 3 2 1 1 1 1 2 2 2 3 3 3 2 3 4 4 5 4 4 3 3 2 2 2 1 2 2 2 2
8 8 7 7 6 6 5 5 4 4 3 2 3 3 3 2 2 2 1 0 1 2 2 3 3 3 3 4 4 4 4 4 4 4 3 2 1 1 1 2 2 2 2
8 7 7 6 5 5 4 4 4 3 3 3 3 3 3 2 2 2 1 0 1 2 2 3 3 2 2 2 3 4 4 4 3 3 3 4 3 3 2 2 4 3 4
8 7 6 6 5 5 4 3 4 4 4 4 3 2 1 1 1 1 0 0 1 2 2 3 3 2 2 2 3 5 4 4 4 3 3 3 2 3 3 3 2 2 2
7 6 6 6 5 5 5 4 4 4 3 3 2 2 2 1 1 1 1 1 1 2 2 3 3 2 1 3 4 4 4 3 4 3 3 2 2 3 3 2 2 3 2
7 6 6 6 5 5 5 4 4 4 3 3 2 2 1 1 1 1 1 1 2 3 3 3 3 3 2 3 4 3 4 4 3 2 1 1 2 2 2 2 3 3 4
7 6 6 5 5 5 5 5 4 4 3 2 2 2 1 1 1 1 1 2 3 3 3 3 4 4 4 4 6 5 3 4 4 3 2 1 1 2 3 3 3 5 5
7 6 5 5 4 5 5 4 4 3 3 2 2 2 2 2 2 1 2 3 3 3 3 4 4 4 3 4 6 7 6 5 4 4 3 2 3 4 5 5 6 7 6
6 5 5 5 5 5 5 4 3 3 3 3 2 2 1 2 2 3 3 3 3 3 4 3 3 2 2 2 5 6 7 7 4 4 5 7 8 7 6 8 10 7 4
5 5 5 6 5 5 4 4 4 4 4 3 2 2 2 3 3 3 3 3 3 2 3 3 3 2 2 0 1 2 3 5 5 4 6 8 9 8 8 8 7 6 5
4 5 4 5 5 5 5 4 4 4 3 3 2 3 4 3 2 3 3 3 2 2 2 3 4 3 3 2 2 3 3 3 3 4 4 5 5 4 5 5 4 4 4
5 5 5 5 5 5 5 4 4 4 3 3 3 3 3 3 3 3 3 4 5 5 6 6 6 4 4 5 4 5 6 6 5 4 5 6 5 5 5 4 4 4 4
Wind_Direction
147 140 136 133 130 126 129 133 131 131 131 134 146 142 113 99 86 82 56 36 3 354 344 345 343 334 334 328 332 325 312 308 308 299 298 288 260 225 198 269 230 189 192
149 150 145 141 139 138 139 134 135 132 136 130 124 123 102 102 93 69 59 26 2 353 351 355 346 339 332 343 337 325 310 307 324 306 297 283 264 312 320 231 202 165 187
159 157 153 152 150 147 143 138 133 128 117 104 104 91 94 104 110 117 85 360 3 6 351 354 351 345 348 345 328 333 323 313 310 294 292 300 297 323 251 324 44 68 185
166 163 157 158 157 153 143 133 132 126 119 126 117 118 131 109 86 97 98 22 19 12 354 359 353 349 349 348 333 356 321 309 307 302 287 286 304 292 282 260 213 223 200
169 169 165 160 156 150 141 137 137 137 132 118 106 112 84 71 73 67 70 139 14 4 351 355 356 348 352 351 346 339 331 322 314 309 304 298 286 260 251 262 239 236 251
169 168 158 151 151 149 146 144 152 149 139 134 128 126 105 80 72 47 19 329 35 19 2 355 353 348 351 342 338 332 325 323 316 309 302 299 296 292 274 260 254 224 215
166 162 154 153 149 152 152 152 154 151 148 143 149 152 133 127 128 351 26 351 7 33 13 357 345 343 339 333 337 330 319 319 313 302 293 295 298 295 288 282 283 300 263
162 157 154 149 149 151 151 153 155 153 152 149 151 149 156 127 85 12 354 356 5 11 358 351 347 344 339 338 333 326 318 322 315 311 310 297 294 292 288 279 276 287 281
151 150 147 144 147 149 149 152 157 159 157 156 162 163 161 134 83 28 7 4 356 346 5 354 346 334 331 328 325 319 320 317 315 311 310 302 294 297 296 287 266 251 265
138 138 141 145 144 147 148 146 149 162 164 162 175 160 150 151 125 38 27 19 14 1 339 339 331 323 331 335 329 315 324 326 318 308 314 308 304 305 292 270 262 258 261
140 144 144 143 143 148 149 148 148 148 158 157 158 128 140 133 107 73 24 28 10 332 318 323 322 325 338 333 324 319 323 329 330 327 329 322 317 320 305 301 286 273 262
136 142 142 145 149 151 153 153 156 161 168 160 149 142 129 107 92 45 29 10 339 310 311 317 313 320 342 340 333 333 335 334 328 329 331 327 329 326 311 313 294 286 247
146 145 146 151 154 158 158 159 166 172 173 165 156 140 136 128 95 50 309 297 298 300 316 325 322 325 340 341 342 338 336 335 334 335 333 331 330 329 327 308 300 293 285
146 149 154 155 158 161 162 166 175 178 177 168 153 144 147 153 192 229 245 281 297 304 313 322 321 326 344 352 355 348 334 329 334 337 332 333 338 337 328 321 317 304 293
155 157 160 156 158 162 165 167 169 169 170 167 157 152 162 173 195 220 243 282 300 312 327 327 322 328 343 4 4 339 329 334 333 334 331 327 339 0 323 322 321 311 288
160 159 160 158 160 164 165 163 164 167 167 174 174 166 168 179 204 214 207 292 329 328 327 324 335 341 359 30 11 348 326 320 323 324 321 310 301 309 238 261 284 292 293
157 157 156 154 154 159 159 161 165 170 173 185 190 182 182 188 205 234 182 147 314 310 318 320 322 343 0 344 336 333 317 307 308 318 320 318 334 334 300 260 245 251 251
156 155 155 153 151 151 157 167 179 185 184 182 181 186 194 192 215 257 77 288 297 297 301 301 294 302 328 299 311 316 297 291 286 290 296 297 314 332 325 295 284 268 274
145 146 149 150 152 157 163 174 185 184 182 183 180 194 203 197 196 197 218 268 279 278 278 280 282 292 289 262 278 302 298 289 288 281 297 300 310 338 329 302 290 288 275
135 138 146 150 154 158 163 177 180 177 187 185 184 187 196 210 202 245 257 271 275 272 274 283 284 281 265 248 250 276 293 298 300 293 285 324 330 325 327 299 292 286 285
139 145 150 152 156 163 168 179 178 183 192 185 178 166 186 226 226 242 263 271 270 275 277 274 267 259 245 230 233 240 268 295 306 303 296 299 308 302 298 286 270 268 281
148 151 152 152 157 163 170 176 178 179 177 169 181 187 206 257 259 241 258 267 271 274 266 259 258 251 231 217 219 229 241 264 292 300 313 313 296 294 289 277 266 271 277
148 152 154 153 154 163 169 173 172 171 168 169 184 195 230 253 258 247 254 256 255 260 269 270 274 264 231 203 214 228 251 258 262 284 296 290 278 281 274 257 260 265 256
146 155 164 161 160 165 167 170 167 170 172 178 188 206 225 240 244 253 264 269 272 280 300 307 305 305 303 278 193 246 249 257 254 270 286 281 269 266 269 269 257 240 238
154 158 163 165 163 162 165 171 170 168 173 185 207 227 238 241 244 250 260 273 297 303 287 305 312 311 312 320 315 295 299 306 318 310 284 276 267 260 256 255 250 238 229
156 160 166 170 170 169 166 167 171 173 179 199 223 243 245 242 243 239 252 250 240 244 241 246 258 279 268 272 290 295 291 291 305 302 280 279 273 271 269 262 257 249 244